Regional Weather Roundup
Issued by NWS Northern Indiana

Home | Current Version | Previous Version | Text Only | Print | Product List | Glossary On
Versions: 1 2 3 4 5 6 7 8 9 10 11 12 13 14 15 16 17 18 19 20 21 22 23 24 25 26 27 28 29 30 31 32 33 34 35 36 37 38 39 40 41 42 43 44 45 46 47 48 49 50
000
ASUS43 KIWX 260810
RWRIWX

KIWX WEATHER ROUNDUP
NATIONAL WEATHER SERVICE NORTHERN INDIANA
400 AM EDT TUE JUL 26 2016

NOTE: "FAIR" INDICATES FEW OR NO CLOUDS BELOW 12,000 FEET WITH NO
SIGNIFICANT WEATHER AND/OR OBSTRUCTIONS TO VISIBILITY.

* THESE STATIONS ARE NOT UNDER NWS QUALITY CONTROL. THEY ALSO MAY NOT
  REPORT WEATHER SUCH AS PRECIPITATION OR FOG.

INZ001>027-260900-
NORTHERN INDIANA

CITY           SKY/WX    TMP DP  RH WIND       PRES   REMARKS
GARY*          PTCLDY    69  69 100 CALM      30.03S
VALPARAISO     CLEAR     67  65  93 CALM      30.04S
MICHIGAN CITY* CLEAR     63  63 100 CALM      30.04S
LAPORTE*       CLEAR    N/A N/A N/A CALM      30.05S
KNOX*          CLEAR     64  63  94 CALM      30.03S
SOUTH BEND     CLOUDY    65  63  93 CALM      30.04S
GOSHEN         CLOUDY    64  61  90 CALM      30.04S
MONTICELLO*    CLEAR     65  61  87 CALM      30.02S
LOGANSPORT*    CLEAR     63  61  94 E3        30.04S
ROCHESTER*     PTCLDY    64  64 100 CALM      30.04S
WARSAW*        CLOUDY    63  63 100 CALM      30.04S
ANGOLA*          N/A     63  63 100 CALM      30.04S
FORT WAYNE     PTCLDY    64  61  90 CALM      30.03F
HUNTINGTON*    CLEAR     64  62  96 CALM      30.03S FOG
PERU/GRISSOM   CLOUDY    64  64 100 CALM      30.02S
MARION*        MOCLDY    61  61 100 CALM      30.04S

$$
INZ028>050-260900-
CENTRAL INDIANA

CITY           SKY/WX    TMP DP  RH WIND       PRES   REMARKS
LAFAYETTE      MOCLDY    67  65  93 NE6       30.01F
KOKOMO*        PTCLDY    64  57  77 CALM      30.04S
MUNCIE*        CLOUDY    69  65  86 CALM      30.03F
INDIANAPOLIS   CLOUDY    76  67  73 NE7       30.02S

$$
MIZ043>046-050>051-056>058-064>065-071>073-077>080-260900-
SOUTHWEST LOWER MICHIGAN

CITY           SKY/WX    TMP DP  RH WIND       PRES   REMARKS
BATTLE CREEK   CLEAR     62  62 100 CALM      30.05S
BENTON HARBOR  CLEAR     64  62  93 CALM      30.03F
COLDWATER*     CLOUDY    63  63 100 CALM      30.04F
HILLSDALE*     CLOUDY    63  61  91 NW5       30.04S
HOLLAND        CLEAR     64  63  96 CALM      30.04S FOG
GRAND RAPIDS   CLEAR     67  63  87 CALM      30.04S
KALAMAZOO      CLEAR     64  61  90 CALM      30.05S
STURGIS*       CLOUDY    63  61  94 CALM      30.04S
THREE RIVERS*  FAIR      64  62  93 CALM      30.05S

$$
OHZ001>008-015>018-024>025-260900-
NORTHWEST OHIO

CITY           SKY/WX    TMP DP  RH WIND       PRES   REMARKS
DEFIANCE       PTCLDY    68  62  81 NW3       30.02S
FINDLAY        CLOUDY    70  63  78 NW3       30.01S
TOLEDO EXPRESS PTCLDY    68  66  93 NW5       30.01S
TOLEDO METCALF CLEAR     73  63  70 N7        30.01S
LIMA           PTCLDY    69  65  86 NW3       30.03S

$$
AND FOR LAKE MICHIGAN COASTAL AND OPEN LAKE BUOY OBSERVATIONS

STATION/POSITION TEMP    WIND        PRES    VSBY  WAVE
                 AIR SEA DIR/SP/G                  HT/PER
                 (F)     (DEG/KT/KT) (MB)    (MI)  (FT/S)
CALUMET HARBOR    73     150/  1/  1 1016.2F
MICHIGAN CITY     72     130/  4/  4   N/A
BURNS HARBOR      76      CALM  /  4 1017.3S
SAINT JOSEPH      70      CALM  /  3 1017.6R
SOUTH LAKE BUOY   73 73  250/  2/  2 1016.1F         0
4 MI NW BRIDGMAN  73 75   CALM  /  2 1016.6F         1
MICHIGAN CITY     74 75  140/  2/  4   N/A           1

$$
&&




USA.gov is the U.S. government's official web portal to all federal, state and local government web resources and services.